| time (UTC) | temp F | wind direction | speed knots | gust knots | rain 1hr in | rain 24hr in | rain mn in | humidity % | barometer mb |
| 20260505210106 | 80 | 227 | 6.1 | 14.8 | 0.00 | 0.01 | 0.01 | 35 | 1008.1 |
| 20260505204603 | 81 | 202 | 4.3 | 14.8 | 0.00 | 0.01 | 0.01 | 36 | 1008.2 |
| 20260505203102 | 80 | 334 | 3.5 | 15.6 | 0.00 | 0.01 | 0.01 | 36 | 1008.3 |
| 20260505201551 | 81 | 297 | 4.3 | 15.6 | 0.00 | 0.01 | 0.01 | 34 | 1008.2 |
| 20260505200056 | 81 | 279 | 6.1 | 15.6 | 0.00 | 0.01 | 0.01 | 38 | 1008.2 |
| 20260505194549 | 81 | 170 | 5.2 | 17.4 | 0.00 | 0.01 | 0.01 | 34 | 1008.2 |
| 20260505193100 | 80 | 209 | 4.3 | 16.5 | 0.00 | 0.01 | 0.01 | 39 | 1008.2 |
| 20260505191554 | 81 | 192 | 2.6 | 12.2 | 0.00 | 0.01 | 0.01 | 38 | 1008.5 |
| 20260505190051 | 81 | 207 | 3.5 | 17.4 | 0.00 | 0.01 | 0.01 | 39 | 1008.7 |
| 20260505184550 | 81 | 228 | 2.6 | 16.5 | 0.00 | 0.01 | 0.01 | 41 | 1008.8 |
| 20260505183050 | 81 | 252 | 2.6 | 13.9 | 0.00 | 0.01 | 0.01 | 37 | 1008.9 |
| 20260505181559 | 82 | 198 | 3.5 | 11.3 | 0.00 | 0.01 | 0.01 | 41 | 1009.1 |
| 20260505180058 | 82 | 196 | 2.6 | 10.4 | 0.00 | 0.01 | 0.01 | 42 | 1009.3 |
| 20260505174602 | 81 | 296 | 3.5 | 15.6 | 0.00 | 0.01 | 0.01 | 43 | 1009.4 |
| 20260505173055 | 81 | 153 | 4.3 | 11.3 | 0.00 | 0.01 | 0.01 | 44 | 1009.6 |
| 20260505171550 | 80 | 152 | 2.6 | 13.0 | 0.00 | 0.01 | 0.01 | 44 | 1009.4 |
| 20260505170055 | 80 | 313 | 1.7 | 9.6 | 0.00 | 0.01 | 0.01 | 50 | 1009.6 |
| 20260505164551 | 79 | 312 | 2.6 | 7.0 | 0.00 | 0.01 | 0.01 | 46 | 1009.8 |
| 20260505163054 | 79 | 165 | 3.5 | 10.4 | 0.00 | 0.01 | 0.01 | 48 | 1010.1 |
| 20260505161551 | 79 | 328 | 1.7 | 8.7 | 0.00 | 0.01 | 0.01 | 47 | 1010.2 |
| 20260505153055 | 76 | 234 | 2.6 | 7.0 | 0.00 | 0.01 | 0.01 | 51 | 1010.6 |
| 20260505151556 | 75 | 161 | 2.6 | 9.6 | 0.00 | 0.01 | 0.01 | 51 | 1010.7 |
| 20260505150108 | 75 | 244 | 1.7 | 7.0 | 0.00 | 0.01 | 0.01 | 53 | 1010.9 |
| 20260505130109 | 65 | 228 | 1.7 | 8.7 | 0.00 | 0.01 | 0.01 | 68 | 1011.5 |
| 20260505124558 | 65 | 283 | 2.6 | 9.6 | 0.00 | 0.01 | 0.01 | 68 | 1011.3 |
| 20260505123057 | 64 | 0 | 1.7 | 6.1 | 0.00 | 0.01 | 0.01 | 69 | 1011.2 |
| 20260505121553 | 63 | 324 | 1.7 | 5.2 | 0.00 | 0.01 | 0.01 | 73 | 1011.3 |
| 20260505120104 | 61 | 236 | 0.9 | 3.5 | 0.00 | 0.01 | 0.01 | 77 | 1010.9 |
| 20260505114552 | 58 | 0 | 0.0 | 0.9 | 0.00 | 0.01 | 0.01 | 90 | 1011.2 |
| 20260505113051 | 55 | 0 | 0.0 | 1.7 | 0.00 | 0.01 | 0.01 | 93 | 1011.1 |
| 20260505111549 | 53 | 0 | 0.0 | 1.7 | 0.00 | 0.01 | 0.01 | 94 | 1011.4 |
| 20260505101552 | 53 | 0 | 0.0 | 3.5 | 0.01 | 0.01 | 0.01 | 89 | 1011.0 |
| 20260505100050 | 53 | 0 | 0.0 | 1.7 | 0.01 | 0.01 | 0.01 | 88 | 1010.9 |
| 20260505094601 | 54 | 0 | 0.0 | 0.0 | 0.01 | 0.01 | 0.01 | 87 | 1011.2 |
| 20260505093055 | 55 | 0 | 0.0 | 0.0 | 0.01 | 0.01 | 0.01 | 84 | 1011.2 |
| 20260505091559 | 54 | 0 | 0.0 | 2.6 | 0.00 | 0.00 | 0.00 | 83 | 1010.9 |
| 20260505090048 | 54 | 0 | 0.0 | 0.9 | 0.00 | 0.00 | 0.00 | 82 | 1010.5 |
| 20260505084554 | 54 | 285 | 0.9 | 2.6 | 0.00 | 0.00 | 0.00 | 83 | 1010.2 |
| 20260505083058 | 54 | 0 | 0.9 | 2.6 | 0.00 | 0.00 | 0.00 | 82 | 1010.1 |
| 20260505081557 | 54 | 0 | 0.0 | 1.7 | 0.00 | 0.00 | 0.00 | 80 | 1010.2 |
| 20260505080059 | 55 | 0 | 0.0 | 0.0 | 0.00 | 0.00 | 0.00 | 79 | 1010.3 |
| 20260505074554 | 54 | 0 | 0.9 | 2.6 | 0.00 | 0.00 | 0.00 | 79 | 1010.4 |
| 20260505073051 | 54 | 0 | 0.9 | 2.6 | 0.00 | 0.00 | 0.00 | 78 | 1010.2 |
| 20260505071556 | 54 | 286 | 0.0 | 2.6 | 0.00 | 0.00 | 0.00 | 78 | 1010.0 |
| 20260505070054 | 53 | 286 | 0.9 | 2.6 | 0.00 | 0.00 | 0.00 | 79 | 1010.3 |
| 20260505064555 | 52 | 284 | 0.9 | 2.6 | 0.00 | 0.00 | 0.00 | 80 | 1010.1 |
| 20260505063055 | 53 | 0 | 0.0 | 1.7 | 0.00 | 0.00 | 0.00 | 79 | 1010.3 |
| 20260505061601 | 52 | 276 | 0.9 | 2.6 | 0.00 | 0.00 | 0.00 | 79 | 1010.3 |
| 20260505060055 | 52 | 296 | 0.0 | 1.7 | 0.00 | 0.00 | 0.00 | 79 | 1010.0 |
| 20260505054556 | 52 | 294 | 0.0 | 1.7 | 0.00 | 0.00 | 0.00 | 78 | 1009.9 |
| 20260505053056 | 52 | 0 | 0.0 | 2.6 | 0.00 | 0.00 | 0.00 | 76 | 1009.9 |
| 20260505051555 | 53 | 0 | 0.0 | 0.9 | 0.00 | 0.00 | 0.00 | 74 | 1009.9 |
| 20260505041556 | 57 | 0 | 0.0 | 4.3 | 0.00 | 0.00 | 0.00 | 65 | 1010.1 |
| 20260505040104 | 57 | 325 | 0.0 | 2.6 | 0.00 | 0.00 | 0.00 | 65 | 1010.0 |
| 20260505034559 | 57 | 0 | 0.0 | 1.7 | 0.00 | 0.00 | 0.00 | 64 | 1010.0 |
| 20260505033052 | 58 | 309 | 0.9 | 2.6 | 0.00 | 0.00 | 0.00 | 63 | 1010.1 |
| 20260505031600 | 58 | 0 | 0.0 | 3.5 | 0.00 | 0.00 | 0.00 | 61 | 1010.2 |
| 20260505030059 | 59 | 0 | 0.0 | 3.5 | 0.00 | 0.00 | 0.00 | 61 | 1010.2 |
| 20260505024553 | 58 | 192 | 0.0 | 4.3 | 0.00 | 0.00 | 0.00 | 61 | 1010.2 |
| 20260505023051 | 58 | 0 | 0.0 | 2.6 | 0.00 | 0.00 | 0.00 | 62 | 1010.4 |
| 20260505021552 | 58 | 0 | 0.0 | 2.6 | 0.00 | 0.00 | 0.00 | 61 | 1010.5 |
| 20260505020052 | 57 | 0 | 0.0 | 0.9 | 0.00 | 0.00 | 0.00 | 62 | 1010.6 |
| 20260505014603 | 58 | 0 | 0.0 | 2.6 | 0.00 | 0.00 | 0.00 | 61 | 1010.6 |
| 20260505013048 | 59 | 0 | 0.0 | 0.0 | 0.00 | 0.00 | 0.00 | 59 | 1010.3 |
| 20260505011554 | 60 | 0 | 0.0 | 0.0 | 0.00 | 0.00 | 0.00 | 57 | 1010.2 |
| 20260505010057 | 61 | 0 | 0.0 | 0.9 | 0.00 | 0.00 | 0.00 | 55 | 1010.0 |
| 20260505004556 | 62 | 0 | 0.0 | 1.7 | 0.00 | 0.00 | 0.00 | 54 | 1009.8 |
| 20260505003053 | 63 | 0 | 0.0 | 1.7 | 0.00 | 0.00 | 0.00 | 52 | 1009.9 |
| 20260505001553 | 64 | 215 | 0.0 | 1.7 | 0.00 | 0.00 | 0.00 | 50 | 1009.9 |
| 20260505000055 | 65 | 0 | 0.0 | 2.6 | 0.00 | 0.00 | 0.00 | 48 | 1009.9 |
| 20260504234554 | 66 | 227 | 0.9 | 6.1 | 0.00 | 0.00 | 0.00 | 47 | 1009.5 |
| 20260504233056 | 67 | 0 | 0.9 | 4.3 | 0.00 | 0.00 | 0.00 | 46 | 1009.3 |
| 20260504231553 | 68 | 173 | 0.9 | 5.2 | 0.00 | 0.00 | 0.00 | 45 | 1009.2 |
| 20260504230053 | 68 | 180 | 2.6 | 7.8 | 0.00 | 0.00 | 0.00 | 44 | 1009.3 |
| 20260504224555 | 69 | 215 | 2.6 | 9.6 | 0.00 | 0.00 | 0.00 | 43 | 1009.0 |
| 20260504223056 | 69 | 201 | 1.7 | 7.8 | 0.00 | 0.00 | 0.00 | 42 | 1009.2 |
| 20260504221552 | 70 | 250 | 0.9 | 6.1 | 0.00 | 0.00 | 0.00 | 42 | 1009.2 |
| 20260504220049 | 71 | 276 | 0.9 | 6.1 | 0.00 | 0.00 | 0.00 | 41 | 1009.1 |
| 20260504214604 | 71 | 0 | 0.9 | 4.3 | 0.00 | 0.00 | 0.00 | 42 | 1009.2 |
| 20260504213050 | 71 | 141 | 1.7 | 5.2 | 0.00 | 0.00 | 0.00 | 41 | 1009.4 |
| 20260504211552 | 71 | 232 | 1.7 | 7.8 | 0.00 | 0.00 | 0.00 | 41 | 1009.5 |